"Pseudo-MPEC" for CAPVFJ2

Created 2024 Sep 6 7:22:04 UT using Find_Orb

Click here for an explanation of pseudo-MPECs

 
 Astrometry: 
     CAPVFJ2*1C2024 09 01.27094216 55 47.665+48 06 26.46   ~917b 18.00GVNEOCPG96
     CAPVFJ2 1C2024 09 01.27658516 56 03.833+48 07 14.27   ~917b 19.71GVNEOCPG96
     CAPVFJ2 1C2024 09 01.28222916 56 19.723+48 08 00.78   ~917b 18.72GVNEOCPG96

Station data:
(G96) Mt. Lemmon Survey  (N32.442729 W110.788720)  US/Arizona.  Observer E.
   J. Christensen. 1.5-m reflector + 10K CCD.

Orbital elements:  CAPVFJ2
   Perihelion 2024 Jul 31.54070 +/- 39.1 TT = 12:58:36 (JD 2460523.04070)
Epoch 2024 Sep  1.0 TT = JDT 2460554.5   Earth MOID: 0.0107      AutoNEOCP
M  15.85514129 +/- 39               (J2000 ecliptic)
n   0.50398904 +/- 0.372            Peri.  324.29011 +/- 80
a   1.56382680 +/- 0.769            Node   336.23246 +/- 70
e   0.3954092 +/- 0.294             Incl.   41.39007 +/- 16
P   1.956/714.288d         H 23.13  G  0.15   U 12.1  SR
q 0.94547519 +/- 0.0731    Q 2.18217840 +/- 30.8
From 3 observations 2024 Sept. 1 (16.3 min); mean residual 0".44
Residuals in arcseconds: 
240901 G96  .41-  .15-    240901 G96  .83+  .31+    240901 G96  .41-  .15-    

Ephemerides (geocentric):
Date (UTC) HH   RA             Dec           delta  r     elong  mag " sig PA
---- --------  ------------   ------------  ------ ------ -----  --- --------
2024 09 06 07  18 23 51.289   +50 33 00.83  .10176 1.0271  98.0 20.9  38d  46
2024 09 06 08  18 24 06.589   +50 33 02.89  .10232 1.0273  98.0 20.9  38d  46
2024 09 06 09  18 24 21.726   +50 33 04.79  .10289 1.0274  98.1 20.9  38d  46
2024 09 06 10  18 24 36.704   +50 33 06.53  .10345 1.0276  98.1 20.9  38d  46
2024 09 06 11  18 24 51.526   +50 33 08.12  .10402 1.0278  98.1 20.9  39d  46
2024 09 06 12  18 25 06.193   +50 33 09.55  .10459 1.0279  98.1 20.9  39d  46
2024 09 06 13  18 25 20.709   +50 33 10.84  .10515 1.0281  98.2 21.0  39d  46
2024 09 06 14  18 25 35.076   +50 33 11.98  .10572 1.0283  98.2 21.0  39d  46
2024 09 06 15  18 25 49.295   +50 33 12.98  .10629 1.0285  98.2 21.0  39d  46
2024 09 06 16  18 26 03.371   +50 33 13.85  .10685 1.0286  98.2 21.0  39d  46
2024 09 06 17  18 26 17.304   +50 33 14.59  .10742 1.0288  98.3 21.0  39d  46
2024 09 06 18  18 26 31.098   +50 33 15.20  .10798 1.0290  98.3 21.0  39d  46
2024 09 06 19  18 26 44.753   +50 33 15.68  .10855 1.0292  98.3 21.0  39d  46
2024 09 06 20  18 26 58.274   +50 33 16.04  .10912 1.0293  98.3 21.0  39d  46
2024 09 06 21  18 27 11.661   +50 33 16.28  .10968 1.0295  98.4 21.0  39d  46
2024 09 06 22  18 27 24.916   +50 33 16.41  .11025 1.0297  98.4 21.0  39d  46
2024 09 06 23  18 27 38.043   +50 33 16.42  .11081 1.0298  98.4 21.1  39d  46
2024 09 07 00  18 27 51.042   +50 33 16.33  .11138 1.0300  98.4 21.1  39d  46
2024 09 07 01  18 28 03.916   +50 33 16.13  .11195 1.0302  98.5 21.1  39d  46
2024 09 07 02  18 28 16.667   +50 33 15.82  .11251 1.0304  98.5 21.1  39d  46
2024 09 07 03  18 28 29.296   +50 33 15.41  .11308 1.0305  98.5 21.1  39d  46
2024 09 07 04  18 28 41.805   +50 33 14.90  .11364 1.0307  98.5 21.1  39d  46
2024 09 07 05  18 28 54.197   +50 33 14.30  .11421 1.0309  98.5 21.1  39d  46
2024 09 07 06  18 29 06.473   +50 33 13.60  .11478 1.0311  98.6 21.1  39d  46
2024 09 07 07  18 29 18.634   +50 33 12.81  .11534 1.0312  98.6 21.1  39d  46
2024 09 07 08  18 29 30.683   +50 33 11.94  .11591 1.0314  98.6 21.1  39d  46
2024 09 07 09  18 29 42.621   +50 33 10.97  .11647 1.0316  98.6 21.2  39d  46
2024 09 07 10  18 29 54.450   +50 33 09.92  .11704 1.0318  98.6 21.2  39d  46
2024 09 07 11  18 30 06.171   +50 33 08.79  .11761 1.0319  98.7 21.2  39d  46
2024 09 07 12  18 30 17.786   +50 33 07.57  .11817 1.0321  98.7 21.2  39d  46
2024 09 07 13  18 30 29.296   +50 33 06.28  .11874 1.0323  98.7 21.2  40d  46
2024 09 07 14  18 30 40.704   +50 33 04.91  .11930 1.0325  98.7 21.2  40d  46
2024 09 07 15  18 30 52.010   +50 33 03.47  .11987 1.0326  98.7 21.2  40d  46
2024 09 07 16  18 31 03.215   +50 33 01.95  .12044 1.0328  98.8 21.2  40d  46
2024 09 07 17  18 31 14.323   +50 33 00.36  .12100 1.0330  98.8 21.2  40d  46
2024 09 07 18  18 31 25.333   +50 32 58.70  .12157 1.0332  98.8 21.2  40d  46
2024 09 07 19  18 31 36.247   +50 32 56.98  .12213 1.0333  98.8 21.2  40d  46
2024 09 07 20  18 31 47.067   +50 32 55.19  .12270 1.0335  98.8 21.3  40d  46
2024 09 07 21  18 31 57.794   +50 32 53.33  .12327 1.0337  98.8 21.3  40d  46
2024 09 07 22  18 32 08.429   +50 32 51.41  .12383 1.0339  98.9 21.3  40d  46
2024 09 07 23  18 32 18.973   +50 32 49.43  .12440 1.0341  98.9 21.3  40d  46
2024 09 08 00  18 32 29.428   +50 32 47.38  .12496 1.0342  98.9 21.3  40d  46
2024 09 08 01  18 32 39.796   +50 32 45.28  .12553 1.0344  98.9 21.3  40d  46
2024 09 08 02  18 32 50.076   +50 32 43.13  .12609 1.0346  98.9 21.3  40d  46
2024 09 08 03  18 33 00.271   +50 32 40.91  .12666 1.0348  98.9 21.3  40d  46
2024 09 08 04  18 33 10.381   +50 32 38.64  .12722 1.0349  99.0 21.3  40d  46
2024 09 08 05  18 33 20.409   +50 32 36.32  .12779 1.0351  99.0 21.3  40d  46
2024 09 08 06  18 33 30.354   +50 32 33.95  .12836 1.0353  99.0 21.3  40d  46